AIQ728 WMKP-VTBD

Flight info

Callsign AIQ728
Flight time 1h 27m
Altitude 36000
Route UGAMO1A UGAMO Y350 RIGTO M769 GOKEX/N0451F380 Y96 EMTIX/N0449F370 Y99 HOTEL SABAI3A
Aircraft A320/M-SDE3FGHIRWY/LB1

Departure

Time 2026-04-27 16:31
Airport Penang International Airport (WMKP)

Arrival

Time 2026-04-27 17:58
Airport Don Mueang International Airport (VTBD)
Time Latitude Longitude Altitude Speed Heading
2026-04-27 16:23 5.29324 100.26754 18 ft 0 kts 311°
2026-04-27 16:24 5.29306 100.26775 18 ft 2 kts 311°
2026-04-27 16:25 5.29284 100.26800 19 ft 2 kts 311°
2026-04-27 16:25 5.29268 100.26827 21 ft 2 kts 222°
2026-04-27 16:26 5.29287 100.26845 21 ft 0 kts 223°
2026-04-27 16:27 5.29241 100.26852 18 ft 10 kts 135°
2026-04-27 16:28 5.29104 100.26871 19 ft 18 kts 221°
2026-04-27 16:28 5.28892 100.26679 19 ft 19 kts 223°
2026-04-27 16:29 5.28665 100.26613 19 ft 6 kts 131°
2026-04-27 16:30 5.28628 100.26700 20 ft 8 kts 43°
2026-04-27 16:30 5.28632 100.26704 19 ft 0 kts 42°
2026-04-27 16:31 5.29764 100.27729 20 ft 156 kts 42°
2026-04-27 16:31 5.31473 100.29262 1142 ft 164 kts 42°
2026-04-27 16:32 5.33361 100.30932 1867 ft 204 kts 41°
2026-04-27 16:32 5.34491 100.31933 2227 ft 228 kts 41°
2026-04-27 16:33 5.37099 100.34241 3219 ft 264 kts 39°
2026-04-27 16:33 5.38743 100.35059 4003 ft 270 kts
2026-04-27 16:33 5.40604 100.34929 4813 ft 276 kts 346°
2026-04-27 16:33 5.42438 100.34311 5653 ft 280 kts 339°
2026-04-27 16:34 5.44269 100.33609 6427 ft 284 kts 347°
2026-04-27 16:34 5.46237 100.33444 7161 ft 286 kts
2026-04-27 16:34 5.48240 100.33449 7952 ft 289 kts
2026-04-27 16:34 5.50261 100.33461 8745 ft 291 kts
2026-04-27 16:35 5.52279 100.33471 9510 ft 294 kts
2026-04-27 16:35 5.54336 100.33479 10208 ft 299 kts
2026-04-27 16:35 5.58804 100.33497 10733 ft 338 kts
2026-04-27 16:36 5.61188 100.33501 11334 ft 344 kts
2026-04-27 16:36 5.63600 100.33508 11943 ft 348 kts
2026-04-27 16:36 5.66038 100.33514 12583 ft 352 kts
2026-04-27 16:36 5.68470 100.33520 13222 ft 355 kts
2026-04-27 16:37 5.70957 100.33526 13841 ft 358 kts
2026-04-27 16:37 5.73463 100.33532 14386 ft 361 kts
2026-04-27 16:37 5.75988 100.33537 14935 ft 364 kts
2026-04-27 16:37 5.78541 100.33543 15476 ft 367 kts
2026-04-27 16:38 5.81079 100.33549 16007 ft 371 kts
2026-04-27 16:38 5.83673 100.33554 16554 ft 373 kts
2026-04-27 16:38 5.86283 100.33561 17091 ft 376 kts
2026-04-27 16:38 5.88915 100.33571 17621 ft 379 kts
2026-04-27 16:39 5.91574 100.33580 18140 ft 383 kts
2026-04-27 16:39 5.94245 100.33588 18587 ft 385 kts
2026-04-27 16:39 5.96943 100.33594 19036 ft 388 kts
2026-04-27 16:39 5.99651 100.33597 19485 ft 390 kts
2026-04-27 16:40 6.02341 100.33600 19939 ft 392 kts
2026-04-27 16:40 6.05081 100.33606 20381 ft 395 kts
2026-04-27 16:40 6.07839 100.33616 20808 ft 397 kts
2026-04-27 16:40 6.10618 100.33627 21229 ft 400 kts
2026-04-27 16:41 6.12468 100.33633 21504 ft 401 kts
2026-04-27 16:41 6.15274 100.33642 21919 ft 404 kts
2026-04-27 16:41 6.19054 100.33650 22472 ft 407 kts
2026-04-27 16:41 6.21859 100.33657 22868 ft 410 kts
2026-04-27 16:42 6.24723 100.33667 23249 ft 412 kts
2026-04-27 16:42 6.26631 100.33673 23504 ft 414 kts
2026-04-27 16:42 6.30502 100.33686 23936 ft 417 kts
2026-04-27 16:42 6.32423 100.33691 24152 ft 418 kts
2026-04-27 16:43 6.35347 100.33696 24471 ft 420 kts
2026-04-27 16:43 6.38275 100.33701 24791 ft 422 kts
2026-04-27 16:43 6.41219 100.33706 25111 ft 424 kts
2026-04-27 16:43 6.44183 100.33714 25431 ft 426 kts
2026-04-27 16:44 6.47164 100.33722 25745 ft 428 kts
2026-04-27 16:44 6.50157 100.33730 26064 ft 430 kts
2026-04-27 16:44 6.53115 100.33737 26369 ft 432 kts
2026-04-27 16:44 6.56127 100.33744 26677 ft 434 kts
2026-04-27 16:45 6.59196 100.33753 26973 ft 436 kts
2026-04-27 16:45 6.62201 100.33764 27270 ft 438 kts
2026-04-27 16:45 6.65259 100.33776 27556 ft 440 kts
2026-04-27 16:45 6.68328 100.33787 27849 ft 441 kts
2026-04-27 16:46 6.71409 100.33796 28136 ft 443 kts
2026-04-27 16:46 6.74501 100.33804 28420 ft 445 kts
2026-04-27 16:46 6.77612 100.33811 28702 ft 447 kts
2026-04-27 16:46 6.80697 100.33817 28979 ft 449 kts
2026-04-27 16:47 6.83831 100.33822 29258 ft 451 kts
2026-04-27 16:47 6.86983 100.33826 29527 ft 453 kts
2026-04-27 16:47 6.90146 100.33832 29789 ft 455 kts
2026-04-27 16:47 6.93323 100.33841 30026 ft 457 kts
2026-04-27 16:48 6.96519 100.33851 30236 ft 459 kts
2026-04-27 16:48 6.99686 100.33863 30442 ft 460 kts
2026-04-27 16:48 7.02902 100.33874 30648 ft 462 kts
2026-04-27 16:49 7.09366 100.33888 31046 ft 466 kts
2026-04-27 16:49 7.12608 100.33895 31295 ft 466 kts
2026-04-27 16:49 7.15850 100.33904 31586 ft 465 kts
2026-04-27 16:49 7.19087 100.33915 31877 ft 465 kts
2026-04-27 16:50 7.22277 100.33922 32167 ft 464 kts
2026-04-27 16:50 7.25508 100.33928 32460 ft 464 kts
2026-04-27 16:50 7.28743 100.33937 32756 ft 463 kts
2026-04-27 16:50 7.31966 100.33945 33057 ft 463 kts
2026-04-27 16:51 7.35190 100.33952 33362 ft 462 kts
2026-04-27 16:51 7.38408 100.33958 33655 ft 462 kts
2026-04-27 16:51 7.41581 100.33965 33944 ft 461 kts
2026-04-27 16:51 7.44790 100.33973 34197 ft 461 kts
2026-04-27 16:52 7.47997 100.33984 34443 ft 460 kts
2026-04-27 16:52 7.51204 100.33997 34675 ft 460 kts
2026-04-27 16:52 7.54415 100.34024 34919 ft 460 kts
2026-04-27 16:52 7.57617 100.34087 35155 ft 459 kts
2026-04-27 16:53 7.60808 100.34169 35394 ft 459 kts
2026-04-27 16:53 7.63995 100.34260 35630 ft 458 kts
2026-04-27 16:53 7.67186 100.34350 35814 ft 458 kts
2026-04-27 16:53 7.70366 100.34433 35875 ft 455 kts
2026-04-27 16:54 7.76641 100.34578 35873 ft 452 kts
2026-04-27 16:54 7.82941 100.34719 35876 ft 452 kts
2026-04-27 16:55 7.89230 100.34857 35876 ft 452 kts
2026-04-27 16:55 7.95519 100.34990 35879 ft 452 kts
2026-04-27 16:56 8.01761 100.35134 35879 ft 451 kts
2026-04-27 16:56 8.08050 100.35282 35880 ft 451 kts
2026-04-27 16:57 8.14329 100.35423 35879 ft 451 kts
2026-04-27 16:57 8.20612 100.35561 35878 ft 451 kts
2026-04-27 16:58 8.26898 100.35709 35883 ft 451 kts
2026-04-27 16:58 8.33136 100.35855 35885 ft 451 kts
2026-04-27 16:59 8.39415 100.35994 35883 ft 451 kts
2026-04-27 16:59 8.45689 100.36136 35883 ft 451 kts
2026-04-27 17:00 8.55098 100.36353 35881 ft 450 kts
2026-04-27 17:01 8.61330 100.36491 35884 ft 450 kts
2026-04-27 17:01 8.67586 100.36632 35888 ft 450 kts
2026-04-27 17:02 8.73846 100.36779 35888 ft 449 kts
2026-04-27 17:02 8.80097 100.36925 35881 ft 449 kts
2026-04-27 17:03 8.86353 100.37074 35881 ft 449 kts
2026-04-27 17:03 8.92556 100.37212 35879 ft 449 kts 360°
2026-04-27 17:04 8.98799 100.37352 35871 ft 449 kts
2026-04-27 17:04 9.05043 100.37504 35870 ft 448 kts
2026-04-27 17:05 9.11293 100.37639 35875 ft 448 kts 360°
2026-04-27 17:05 9.17536 100.37781 35875 ft 448 kts
2026-04-27 17:06 9.23739 100.37933 35886 ft 448 kts
2026-04-27 17:06 9.29993 100.38088 35884 ft 448 kts 360°
2026-04-27 17:07 9.36231 100.38233 35884 ft 448 kts 359°
2026-04-27 17:07 9.42471 100.38374 35885 ft 448 kts 360°
2026-04-27 17:08 9.48691 100.38155 35885 ft 447 kts 354°
2026-04-27 17:08 9.54841 100.37537 35885 ft 447 kts 352°
2026-04-27 17:09 9.61025 100.36885 35884 ft 447 kts 352°
2026-04-27 17:09 9.67208 100.36223 35885 ft 446 kts 353°
2026-04-27 17:10 9.73398 100.35579 35884 ft 446 kts 353°
2026-04-27 17:10 9.79538 100.34947 35886 ft 446 kts 352°
2026-04-27 17:11 9.85713 100.34311 35873 ft 446 kts 353°
2026-04-27 17:11 9.94975 100.33346 35873 ft 445 kts 352°
2026-04-27 17:12 10.04190 100.32393 35868 ft 445 kts 353°
2026-04-27 17:13 10.10362 100.31746 35865 ft 445 kts 353°
2026-04-27 17:13 10.16524 100.31099 35863 ft 445 kts 353°
2026-04-27 17:14 10.22697 100.30447 35869 ft 445 kts 353°
2026-04-27 17:14 10.28828 100.29809 35865 ft 445 kts 353°
2026-04-27 17:15 10.34995 100.29175 35866 ft 445 kts 353°
2026-04-27 17:15 10.41166 100.28538 35863 ft 445 kts 353°
2026-04-27 17:16 10.47338 100.27892 35864 ft 445 kts 353°
2026-04-27 17:16 10.53503 100.27244 35863 ft 445 kts 353°
2026-04-27 17:17 10.59673 100.26601 35865 ft 445 kts 353°
2026-04-27 17:17 10.65840 100.25960 35864 ft 445 kts 353°
2026-04-27 17:18 10.75047 100.24988 35865 ft 445 kts 353°
2026-04-27 17:18 10.81219 100.24338 35876 ft 445 kts 353°
2026-04-27 17:19 10.87389 100.23705 35869 ft 445 kts 353°
2026-04-27 17:19 10.93561 100.23068 35867 ft 445 kts 353°
2026-04-27 17:20 10.99686 100.22426 35864 ft 445 kts 353°
2026-04-27 17:20 11.05857 100.21871 35863 ft 445 kts
2026-04-27 17:21 11.12056 100.22180 35857 ft 446 kts
2026-04-27 17:21 11.18259 100.22505 35883 ft 446 kts
2026-04-27 17:22 11.24459 100.22836 35871 ft 446 kts
2026-04-27 17:22 11.30620 100.23150 35872 ft 446 kts
2026-04-27 17:23 11.36817 100.23475 35870 ft 446 kts
2026-04-27 17:23 11.43015 100.23801 35867 ft 446 kts
2026-04-27 17:24 11.49216 100.24130 35862 ft 446 kts
2026-04-27 17:24 11.55416 100.24458 35865 ft 446 kts
2026-04-27 17:25 11.61564 100.24782 35867 ft 446 kts
2026-04-27 17:25 11.67767 100.25111 35866 ft 445 kts
2026-04-27 17:26 11.73971 100.25438 35864 ft 445 kts
2026-04-27 17:26 11.80131 100.25765 35864 ft 445 kts
2026-04-27 17:27 11.85762 100.26058 35859 ft 445 kts
2026-04-27 17:27 11.91956 100.26379 35860 ft 445 kts
2026-04-27 17:28 11.98148 100.26707 35863 ft 445 kts
2026-04-27 17:29 12.07395 100.27196 35861 ft 445 kts
2026-04-27 17:29 12.13587 100.27528 35859 ft 445 kts
2026-04-27 17:30 12.19771 100.27853 35857 ft 445 kts
2026-04-27 17:30 12.28010 100.28289 35857 ft 445 kts
2026-04-27 17:31 12.35207 100.28664 35857 ft 445 kts
2026-04-27 17:31 12.40407 100.28936 35695 ft 450 kts
2026-04-27 17:32 12.43541 100.29103 35449 ft 451 kts
2026-04-27 17:32 12.49730 100.29440 34434 ft 446 kts
2026-04-27 17:32 12.52830 100.29606 33870 ft 445 kts
2026-04-27 17:33 12.55918 100.29768 33278 ft 443 kts
2026-04-27 17:33 12.58983 100.29929 32746 ft 439 kts
2026-04-27 17:33 12.62031 100.30089 32195 ft 437 kts
2026-04-27 17:33 12.65063 100.30249 31657 ft 435 kts
2026-04-27 17:34 12.68080 100.30407 31128 ft 432 kts
2026-04-27 17:34 12.71040 100.30560 30610 ft 430 kts
2026-04-27 17:34 12.74021 100.30718 30091 ft 427 kts
2026-04-27 17:34 12.76985 100.30876 29524 ft 425 kts
2026-04-27 17:35 12.79928 100.31030 29024 ft 420 kts
2026-04-27 17:35 12.82834 100.31185 28533 ft 415 kts
2026-04-27 17:35 12.85707 100.31339 28058 ft 411 kts
2026-04-27 17:35 12.88546 100.31491 27588 ft 406 kts
2026-04-27 17:36 12.91359 100.31643 27137 ft 401 kts
2026-04-27 17:36 12.94098 100.31791 26692 ft 397 kts
2026-04-27 17:36 12.96851 100.31939 26252 ft 393 kts
2026-04-27 17:36 12.99577 100.32083 25810 ft 389 kts
2026-04-27 17:37 13.02279 100.32224 25342 ft 386 kts
2026-04-27 17:37 13.04956 100.32365 24891 ft 383 kts
2026-04-27 17:37 13.07611 100.32506 24420 ft 381 kts
2026-04-27 17:37 13.10227 100.32646 23952 ft 380 kts
2026-04-27 17:38 13.12860 100.32783 23479 ft 378 kts
2026-04-27 17:38 13.15489 100.32857 22939 ft 376 kts 360°
2026-04-27 17:38 13.18099 100.32874 22466 ft 373 kts 358°
2026-04-27 17:38 13.20686 100.32864 21998 ft 370 kts 358°
2026-04-27 17:39 13.23253 100.32851 21608 ft 366 kts 359°
2026-04-27 17:39 13.25785 100.32845 21275 ft 361 kts 359°
2026-04-27 17:39 13.28289 100.32846 20941 ft 359 kts 358°
2026-04-27 17:39 13.30778 100.32843 20651 ft 356 kts 358°
2026-04-27 17:40 13.33249 100.32818 20417 ft 354 kts 358°
2026-04-27 17:40 13.35712 100.32777 20181 ft 353 kts 356°
2026-04-27 17:40 13.38170 100.32729 19949 ft 353 kts 356°
2026-04-27 17:40 13.40628 100.32681 19717 ft 352 kts 357°
2026-04-27 17:41 13.43040 100.32637 19488 ft 350 kts 357°
2026-04-27 17:41 13.45478 100.32595 19260 ft 349 kts 356°
2026-04-27 17:41 13.47907 100.32554 19033 ft 349 kts 358°
2026-04-27 17:41 13.50333 100.32514 18810 ft 348 kts 357°
2026-04-27 17:42 13.52753 100.32474 18584 ft 345 kts 357°
2026-04-27 17:42 13.55145 100.32436 18216 ft 343 kts 358°
2026-04-27 17:42 13.57532 100.32397 17748 ft 343 kts 358°
2026-04-27 17:42 13.59911 100.32356 17333 ft 341 kts 358°
2026-04-27 17:43 13.62288 100.32315 16914 ft 340 kts 358°
2026-04-27 17:43 13.64624 100.32275 16495 ft 339 kts 357°
2026-04-27 17:43 13.66985 100.32234 16084 ft 338 kts 358°
2026-04-27 17:43 13.69336 100.32194 15676 ft 338 kts 358°
2026-04-27 17:44 13.71686 100.32157 15273 ft 337 kts 358°
2026-04-27 17:44 13.74034 100.32123 14868 ft 337 kts 358°
2026-04-27 17:44 13.76382 100.32088 14453 ft 337 kts 358°
2026-04-27 17:44 13.78729 100.32050 14054 ft 337 kts 358°
2026-04-27 17:45 13.81042 100.32011 13648 ft 337 kts 358°
2026-04-27 17:45 13.83382 100.31985 13198 ft 336 kts
2026-04-27 17:45 13.85683 100.32378 12790 ft 336 kts 16°
2026-04-27 17:45 13.87778 100.33373 12624 ft 328 kts 30°
2026-04-27 17:46 13.89694 100.34578 12480 ft 318 kts 30°
2026-04-27 17:46 13.91573 100.35759 12106 ft 313 kts 30°
2026-04-27 17:46 13.93425 100.36920 11603 ft 310 kts 30°
2026-04-27 17:46 13.95265 100.38072 11262 ft 309 kts 30°
2026-04-27 17:47 13.97094 100.39218 10935 ft 307 kts 30°
2026-04-27 17:47 13.98298 100.39974 10726 ft 306 kts 30°
2026-04-27 17:47 14.00721 100.41500 10293 ft 304 kts 31°
2026-04-27 17:47 14.02521 100.42631 9971 ft 302 kts 31°
2026-04-27 17:48 14.04304 100.43752 9470 ft 306 kts 31°
2026-04-27 17:48 14.06117 100.44891 9085 ft 305 kts 31°
2026-04-27 17:48 14.07915 100.46024 8734 ft 296 kts 31°
2026-04-27 17:48 14.09610 100.47093 8600 ft 275 kts 31°
2026-04-27 17:49 14.11220 100.48107 8357 ft 268 kts 31°
2026-04-27 17:49 14.12795 100.49096 8220 ft 262 kts 31°
2026-04-27 17:49 14.14354 100.50074 7982 ft 261 kts 31°
2026-04-27 17:49 14.15904 100.51047 7723 ft 260 kts 31°
2026-04-27 17:50 14.17448 100.52019 7459 ft 260 kts 31°
2026-04-27 17:50 14.19860 100.54617 6955 ft 256 kts 70°
2026-04-27 17:50 14.20188 100.56401 6643 ft 253 kts 93°
2026-04-27 17:51 14.19989 100.58195 6350 ft 252 kts 99°
2026-04-27 17:51 14.19756 100.59987 6034 ft 252 kts 99°
2026-04-27 17:51 14.19527 100.61773 5727 ft 250 kts 99°
2026-04-27 17:51 14.19301 100.63547 5424 ft 249 kts 101°
2026-04-27 17:52 14.18779 100.65212 5126 ft 242 kts 123°
2026-04-27 17:52 14.17691 100.66496 4772 ft 239 kts 146°
2026-04-27 17:52 14.16221 100.67222 4387 ft 237 kts 166°
2026-04-27 17:52 14.14639 100.67658 4078 ft 234 kts 166°
2026-04-27 17:53 14.13075 100.68101 3741 ft 232 kts 166°
2026-04-27 17:53 14.11520 100.68546 3393 ft 228 kts 166°
2026-04-27 17:53 14.10037 100.68971 3236 ft 213 kts 166°
2026-04-27 17:53 14.08659 100.69345 3129 ft 196 kts 173°
2026-04-27 17:54 14.07369 100.69329 3060 ft 179 kts 192°
2026-04-27 17:54 14.06248 100.68885 2883 ft 172 kts 207°
2026-04-27 17:54 14.05215 100.68303 2695 ft 167 kts 206°
2026-04-27 17:54 14.04204 100.67735 2497 ft 164 kts 206°
2026-04-27 17:55 14.03218 100.67180 2310 ft 157 kts 206°
2026-04-27 17:55 14.02287 100.66657 2100 ft 149 kts 206°
2026-04-27 17:55 14.01389 100.66153 1914 ft 145 kts 206°
2026-04-27 17:55 14.00510 100.65660 1731 ft 143 kts 206°
2026-04-27 17:56 13.99647 100.65175 1558 ft 143 kts 206°
2026-04-27 17:56 13.98775 100.64686 1368 ft 142 kts 206°
2026-04-27 17:56 13.97903 100.64197 1183 ft 142 kts 207°
2026-04-27 17:56 13.97034 100.63709 1000 ft 142 kts 206°
2026-04-27 17:57 13.96166 100.63229 832 ft 143 kts 207°
2026-04-27 17:57 13.95299 100.62755 673 ft 144 kts 207°
2026-04-27 17:57 13.94424 100.62258 485 ft 144 kts 209°
2026-04-27 17:57 13.93554 100.61755 257 ft 144 kts 208°
2026-04-27 17:58 13.92677 100.61270 73 ft 142 kts 208°
2026-04-27 17:58 13.91861 100.60807 17 ft 114 kts 209°
2026-04-27 17:58 13.91310 100.60499 16 ft 70 kts 208°
2026-04-27 17:58 13.90934 100.60289 19 ft 47 kts 208°
2026-04-27 17:59 13.90716 100.60159 18 ft 33 kts 219°
2026-04-27 17:59 13.90600 100.60018 16 ft 20 kts 238°
2026-04-27 17:59 13.90635 100.59935 17 ft 14 kts 357°
2026-04-27 17:59 13.90717 100.59975 17 ft 13 kts 28°
2026-04-27 18:00 13.90790 100.60016 17 ft 11 kts 28°
2026-04-27 18:00 13.90859 100.60055 17 ft 13 kts 29°
2026-04-27 18:00 13.90964 100.60114 17 ft 21 kts 28°
2026-04-27 18:00 13.91103 100.60192 17 ft 24 kts 28°
2026-04-27 18:01 13.91262 100.60281 17 ft 27 kts 28°
2026-04-27 18:01 13.91435 100.60378 17 ft 29 kts 29°
2026-04-27 18:01 13.91601 100.60471 17 ft 23 kts 28°
2026-04-27 18:01 13.91728 100.60542 17 ft 20 kts 28°
2026-04-27 18:02 13.91827 100.60591 17 ft 11 kts
2026-04-27 18:02 13.91876 100.60535 17 ft 11 kts 301°
2026-04-27 18:02 13.91912 100.60482 17 ft 6 kts 333°
2026-04-27 18:02 13.91949 100.60496 17 ft 5 kts 28°
2026-04-27 18:03 13.91971 100.60508 17 ft 1 kts 28°
2026-04-27 18:03 13.91976 100.60511 17 ft 0 kts 28°
2026-04-27 18:03 13.91977 100.60511 17 ft 0 kts 28°